TimeEST,TemperatureF,Dew PointF,Humidity,Sea Level PressureIn,VisibilityMPH,Wind Direction,Wind SpeedMPH,Gust SpeedMPH,PrecipitationIn,Events,Conditions,WindDirDegrees,DateUTC
12:56 AM,36.0,27.0,70,30.23,-9999.0,South,9.2,-,N/A,,Unknown,180,2013-11-20 05:56:00
1:56 AM,37.0,28.9,73,30.23,-9999.0,South,6.9,-,N/A,,Unknown,190,2013-11-20 06:56:00
2:56 AM,39.0,30.9,73,30.23,-9999.0,South,11.5,17.3,N/A,,Unknown,180,2013-11-20 07:56:00
3:56 AM,39.9,32.0,73,30.22,-9999.0,South,12.7,17.3,N/A,,Unknown,180,2013-11-20 08:56:00
4:56 AM,39.9,32.0,73,30.21,-9999.0,South,12.7,-,N/A,,Unknown,180,2013-11-20 09:56:00
5:56 AM,39.9,32.0,73,30.21,-9999.0,South,11.5,19.6,N/A,,Unknown,170,2013-11-20 10:56:00
6:56 AM,39.9,33.1,77,30.19,-9999.0,South,13.8,20.7,N/A,,Unknown,180,2013-11-20 11:56:00
7:56 AM,41.0,33.1,73,30.19,-9999.0,South,13.8,19.6,N/A,,Unknown,180,2013-11-20 12:56:00
8:56 AM,41.0,33.1,73,30.19,-9999.0,South,12.7,20.7,N/A,,Unknown,180,2013-11-20 13:56:00
9:56 AM,42.1,34.0,73,30.20,-9999.0,South,15.0,25.3,N/A,,Unknown,170,2013-11-20 14:56:00
10:56 AM,43.0,32.0,65,30.20,-9999.0,South,16.1,27.6,N/A,,Unknown,170,2013-11-20 15:56:00
11:56 AM,42.1,32.0,67,30.21,-9999.0,South,15.0,26.5,N/A,,Unknown,180,2013-11-20 16:56:00
12:56 PM,43.0,32.0,65,30.19,-9999.0,South,16.1,25.3,N/A,,Unknown,180,2013-11-20 17:56:00
1:56 PM,43.0,30.9,62,30.19,-9999.0,South,13.8,21.9,N/A,,Unknown,180,2013-11-20 18:56:00
2:56 PM,43.0,30.9,62,30.18,-9999.0,South,12.7,23.0,N/A,,Unknown,180,2013-11-20 19:56:00
3:56 PM,42.1,30.9,65,30.17,-9999.0,South,15.0,27.6,N/A,,Unknown,170,2013-11-20 20:56:00
4:56 PM,42.1,30.9,65,30.17,-9999.0,South,13.8,20.7,N/A,,Unknown,170,2013-11-20 21:56:00
5:56 PM,41.0,32.0,70,30.18,-9999.0,South,8.1,-,N/A,,Unknown,170,2013-11-20 22:56:00
6:56 PM,41.0,32.0,70,30.18,-9999.0,South,10.4,-,N/A,,Unknown,170,2013-11-20 23:56:00
7:56 PM,39.9,30.9,70,30.17,-9999.0,South,6.9,-,N/A,,Unknown,170,2013-11-21 00:56:00
8:56 PM,39.9,30.9,70,30.17,-9999.0,South,4.6,-,N/A,,Unknown,180,2013-11-21 01:56:00
9:56 PM,39.0,30.9,73,30.17,-9999.0,SW,3.5,-,N/A,,Unknown,220,2013-11-21 02:56:00
10:56 PM,39.0,30.0,70,30.15,-9999.0,Calm,Calm,-,N/A,,Unknown,0,2013-11-21 03:56:00
11:56 PM,39.9,30.0,68,30.16,-9999.0,South,9.2,-,N/A,,Unknown,190,2013-11-21 04:56:00